Regional Weather Roundup
Issued by NWS

Home | Current Version | Previous Version | Text Only | Print | Product List | Glossary On
Versions: 1 2 3 4 5 6 7 8 9 10 11 12 13 14 15 16 17 18 19 20 21 22 23 24 25 26 27 28 29 30 31 32 33 34 35 36 37 38 39 40 41 42 43 44 45 46 47 48 49 50
000
ASUS44 KOUN 301410
RWROK

WEATHER ROUNDUP FOR OKLAHOMA
NATIONAL WEATHER SERVICE NORMAN OK
900 AM CDT TUE JUN 30 2015

NOTE: "FAIR" INDICATES FEW OR NO CLOUDS BELOW 12,000 FEET WITH NO
      SIGNIFICANT WEATHER AND/OR OBSTRUCTIONS TO VISIBILITY.

OKZ001>007-009>012-014-015-017-301500-
NORTHWEST OKLAHOMA AND THE PANHANDLE

CITY           SKY/WX    TMP DP  RH WIND       PRES   REMARKS
GAGE           SUNNY     74  63  68 SW9       30.08R
GUYMON         SUNNY     79  57  46 VRB3      30.11R
ENID/WOODRING  MOSUNNY   75  64  69 W10       30.01R
$$

OKZ016-021>023-033>039-044-045-301500-
SOUTHWEST OKLAHOMA

CITY           SKY/WX    TMP DP  RH WIND       PRES   REMARKS
LAWTON/REGL    SUNNY     78  66  66 SW8       30.04R
LAWTON/FT SILL SUNNY     77  68  73 VRB5      30.03R
FREDERICK      MOSUNNY   78  62  57 NW9       30.03R
CLINTON        SUNNY     80  59  48 W17       30.09R
HOBART         SUNNY     75  64  68 NW10      30.05S
ALTUS AFB      SUNNY     76  65  68 W12       30.05R
$$

OKZ018>020-024>031-301500-
CENTRAL OKLAHOMA

CITY           SKY/WX    TMP DP  RH WIND       PRES   REMARKS
OKLAHOMA CITY  MOSUNNY   76  66  71 SW6       30.04R
OKC/WILEY POST SUNNY     78  64  61 W5        30.04R
OKC/TINKER AFB SUNNY     77  65  66 SW5       30.04R
STILLWATER     SUNNY     76  65  68 W8        30.02R
GUTHRIE        SUNNY     78  64  61 W7        30.02R
$$

OKZ008-013-054>072-301500-
NORTHEAST OKLAHOMA

CITY           SKY/WX    TMP DP  RH WIND       PRES   REMARKS
TULSA          PTSUNNY   80  66  62 W9        29.99R
TULSA/JONES    MOSUNNY   78  69  73 SW5       29.99S
PONCA CITY     SUNNY     76  63  64 CALM      30.00R
BARTLESVILLE   MOSUNNY   75  69  81 CALM      30.00R
MUSKOGEE       SUNNY     78  70  76 SW3       30.02R
$$

OKZ032-040>043-046>053-073>077-301500-
SOUTH CENTRAL/SOUTHEAST OKLAHOMA

CITY           SKY/WX    TMP DP  RH WIND       PRES   REMARKS
ARDMORE/DWNTWN SUNNY     79  64  61 SW6       30.01S
MCALESTER      MOSUNNY   76  66  71 CALM      30.03R
$$




USA.gov is the U.S. government's official web portal to all federal, state and local government web resources and services.